Location: Dal�� Lhota
(48.7500°N, 14.0167°E)
Time: 22:56:53
(UTC+00:00)

SJ-6B - Pass Details

Date: 24 September 2020
Orbit: 511 x 580 km, 97.6° (Epoch: 25 October)

Event Time Altitude Azimuth Distance (km) Brightness Sun altitude
Exits shadow 18:48:16 34° 166° (SSE) 860 3.5 -18.8°
Maximum altitude 18:49:49 90° 235° (SW) 525 2.6 -19.0°
Drops below altitude 10° 18:53:38 10° 347° (NNW) 1,774 5.9 -19.6°
Sets 18:55:46 0° 347° (NNW) 2,679 6.8 -20.0°
